079  
ASUS45 KPSR 131910  
RWRAZ  
 
ARIZONA HOURLY REGIONAL WEATHER ROUNDUP  
NATIONAL WEATHER SERVICE PHOENIX AZ  
1200 PM MST THU AUG 13 2020  
 
NOTE: FAIR INDICATES FEW OR NO CLOUDS BELOW 12,000 FEET WITH NO  
SIGNIFICANT WEATHER AND/OR S TO VISIBILITY
.  
 
AZZ001>003-036-132000-  
NORTHWEST ARIZONA  
 
CITY SKY/WX TMP DP RH WIND PRES REMARKS
 
BULLHEAD CITY PTSUNNY 108 50 14 SW6 29.81F HX 104  
KINGMAN MOSUNNY 101 49 17 NW10 30.05F  

 
 
AZZ004>008-015-016-018-132000-  
NORTH CENTRAL ARIZONA  
 
CITY SKY/WX TMP DP RH WIND PRES REMARKS
 
GRAND CANYON PTSUNNY 85 39 19 W5 30.33F  
WILLIAMS MOSUNNY 84 37 18 VRB7G20 30.33  
PRESCOTT MOSUNNY 91 41 17 CALM 30.18F  
FLAGSTAFF MOSUNNY 85 37 18 MISG 30.35F  
PAYSON MOSUNNY 91 39 16 W9 30.21  
PAGE MOSUNNY 96 23 7 VRB5 30.10F  

 
 
AZZ009>014-017-132000-  
NORTHEAST ARIZONA  
 
CITY SKY/WX TMP DP RH WIND PRES REMARKS
 
WINSLOW SUNNY 95 37 13 N8 30.17F  
SAINT JOHNS SUNNY 90 43 19 W6 30.22F  
WINDOW ROCK MOSUNNY 89 38 16 S14G23 30.30F  
SHOW LOW MOSUNNY 88 36 15 CALM 30.31F  

 
 
AZZ540-542>544-546-548-132000-  
GREATER PHOENIX AREA  
 
CITY SKY/WX TMP DP RH WIND PRES REMARKS
 
PHOENIX MOSUNNY 109 54 16 VRB3 29.81F HX 107  
BUCKEYE N/A 108 55 18 VRB6 29.83 HX 106  
GLENDALE MOSUNNY 108 52 15 N3 29.84F HX 105  
LUKE AFB MOSUNNY 108 50 14 CALM 29.81F HX 104  
DEER VALLEY SUNNY 106 56 19 SW7 29.85F HX 105  
SCOTTSDALE SUNNY 107 55 18 CALM 29.86F HX 106  
MESA-FALCON SUNNY 108 54 16 SW7 29.84F HX 106  
MESA-GATEWAY MOSUNNY 106 55 18 VRB7 29.85F HX 105  
CHANDLER PTSUNNY 108 54 16 SW7 29.84F HX 106  

 
 
AZZ539-553-132000-  
SOUTHWEST MARICOPA COUNTY AND PINAL COUNTY  
 
CITY SKY/WX TMP DP RH WIND PRES REMARKS
 
CASA GRANDE SUNNY 107 56 18 VRB3 29.86F HX 106  
GILA BEND FAIR 109 53 15 CALM 29.79F HX 107  

 
 
AZZ503-504-507>509-132000-  
SOUTHEAST ARIZONA  
 
CITY SKY/WX TMP DP RH WIND PRES REMARKS
 
TUCSON SUNNY 104 49 15 S5 29.97F HX 101  
DAVIS-MONTHAN SUNNY 104 52 17 SW5 29.95 HX 101  
RYAN FIELD SUNNY 102 48 16 W8 29.94F  
NOGALES SUNNY 100 54 21 N6 30.06F  
SIERRA VISTA MOSUNNY 97 47 18 E7 30.14  
DOUGLAS MOSUNNY 98 34 11 VRB3 30.14F  
SAFFORD SUNNY 100 52 19 VRB3 29.98F  

 
 
AZZ532-132000-  
SOUTHWEST ARIZONA  
 
CITY SKY/WX TMP DP RH WIND PRES REMARKS
 
YUMA MOSUNNY 111 53 14 N3 29.77F HX 109  

 
 
CAZ041-043-047-048-061-525>527-560>570-132000-  
SOUTHERN CALIFORNIA  
 
CITY SKY/WX TMP DP RH WIND PRES REMARKS
 
DOWNTOWN L.A. PTSUNNY 83 59 44 CALM 29.88F  
L.A. AIRPORT PTSUNNY 80 54 40 W6 29.89F  
SAN DIEGO PTSUNNY 80 59 48 W15 29.90F  
BURBANK PTSUNNY 86 50 28 E5 29.91F  
ONTARIO PTSUNNY 94 38 14 VRB6 29.91F  
RIVERSIDE MOSUNNY 91 41 17 VRB5 29.91F  
PALM SPRINGS MOSUNNY 111 49 12 CALM 29.80F HX 107  
IMPERIAL MOSUNNY 110 43 10 VRB5 29.74F HX 104  
NEEDLES MOSUNNY 109 44 11 VRB3 29.83F HX 104  

 
 
NVZ020-UTZ003-132000-  
SOUTHERN NEVADA-UTAH  
 
CITY SKY/WX TMP DP RH WIND PRES REMARKS
 
LAS VEGAS PTSUNNY 98 38 12 E10 29.93F  
SALT LAKE CITY MOSUNNY 90 29 11 NW10G18 30.08F  

 
 
NMZ009-TXZ055-132000-  
NEW MEXICO-WEST TEXAS  
 
CITY SKY/WX TMP DP RH WIND PRES REMARKS
 
ALBUQUERQUE MOSUNNY 91 43 18 W9 30.19F  
EL PASO MOSUNNY 104 42 12 VRB6 30.04F  

 
 
   
.......................KEY.....................
 
 
SKY/WX - SKY CONDITION/WEATHER  
TMP - TEMPERATURE IN FAHRENHEIT  
DP - DEW POINT IN FAHRENHEIT  
RH - RELATIVE HUMIDITY IN PERCENT  
WIND - DIRECTION AND SPEED IN MILES PER HOUR (MPH)  
VRB - VARIABLE WIND DIRECTION  
PRES - MEAN SEA LEVEL PRESSURE IN INCHES OF MERCURY  
F - FALLING PRESSURE R - RISING PRESSURE  
S - STEADY PRESSURE  
VSB - VISIBILITY IN MILES  
HX - HEAT INDEX IN FAHRENHEIT  
WCI - WIND CHILL INDEX IN FAHRENHEIT  
TC - TEMPERATURE IN CELSIUS WHICH IS ALSO KNOWN AS  
TEMPERATURE IN CENTIGRADE  
AFB - AIR FORCE BASE  
LUKE AFB IS LUKE AIR FORCE BASE  
DAVIS-MONTHAN IS DAVIS-MONTHAN AIR FORCE BASE  
NAS - NAVAL AIR STATION  
EL CENTRO NAS IS EL CENTRO NAVAL AIR STATION  
N/A - NOT AVAILABLE  
 
 
 
CLICK HERE TO GO TO PREVIOUS BULLETINS.

The Nexlab AZ Page Main Text Page